Location: Berg
(48.4333°N, 13.9167°E)
Time: 05:09:49
(UTC+00:00)

H-2A R/B - Pass Details

Date: 18 September 2020
Orbit: 734 x 836 km, 98.2° (Epoch: 27 October)

Event Time Altitude Azimuth Distance (km) Brightness Sun altitude
Rises 17:33:50 0° 149° (SSE) 3,163 4.8 -4.8°
Reaches altitude 10° 17:36:08 10° 145° (SE) 2,252 4.0 -5.2°
Maximum altitude 17:40:55 52° 70° (ENE) 932 2.2 -5.9°
Drops below altitude 10° 17:45:51 10° 355° (N) 2,318 4.7 -6.7°
Sets 17:48:14 0° 350° (N) 3,264 5.5 -7.1°
